Meteo Giornale » Osservazioni meteo Italia » Treviso-S Angelo

ore: 03:50 - Osservazioni Meteo Treviso-S Angelo
Lat. 45° 39' N Lon. 12° 11' E Alt. 18 metri s.l.m.

nuvoloso Europe/Rome

3 °C

Nuvoloso

Temp. 24 Ore

3 °C

10 °C

Nord

3.7 Km/h

Dew point 3 °C

Umidità 100 %

Visibilità  6 Km

Il sole sorge alle ore 07:36

Il sole tramonta alle ore 16:29

Data e Ora Cielo e Fenomeni T °C DP °C Um. % Pres. hPa Vis. km Vento km/h
Oggi h: 03:50 nuvoloso Nuvoloso 3 3 100 1019 6 N 3.7
Oggi h: 03:20 molto_nuvoloso Molto Nuvoloso 3 3 100 1019 7 N 3.7
Oggi h: 02:50 poco_nuvoloso Poco Nuvoloso 3 2 93 1019 7 N 3.7
Oggi h: 02:20 nuvoloso Nuvoloso 4 3 93 1020 8 N 5.5
Oggi h: 01:50 molto_nuvoloso Molto Nuvoloso 4 3 93 1020 8 O/SO 7.4
Oggi h: 01:20 nuvoloso Nuvoloso 4 3 93 1020 8 O/SO 7.4
Oggi h: 00:50 molto_nuvoloso Molto Nuvoloso 5 4 93 1020 6 N 5.5
Oggi h: 00:20 molto_nuvoloso Molto Nuvoloso 5 4 93 1020 7 N 3.7
Ieri h: 23:50 coperto Coperto 5 4 93 1021 6 O/SO 7.4
Ieri h: 23:20 coperto Coperto 5 4 93 1021 6 N 5.5
Ieri h: 22:50 molto_nuvoloso Molto Nuvoloso 5 4 93 1021 10 N 5.5
Ieri h: 22:20 molto_nuvoloso Molto Nuvoloso 5 4 93 1021 10 N 3.7
Ieri h: 21:50 molto_nuvoloso Molto Nuvoloso 5 4 93 1021 10 N 5.5
Ieri h: 21:20 molto_nuvoloso Molto Nuvoloso 5 3 86 1021 10 N 3.7
Ieri h: 20:50 nuvoloso Nuvoloso 5 3 86 1021 10 N 5.5
Ieri h: 20:20 nuvoloso Nuvoloso 6 3 81 1022 10 O/NO 7.4
Ieri h: 19:50 molto_nuvoloso Molto Nuvoloso 6 4 86 1022 10 N 5.5
Ieri h: 19:20 molto_nuvoloso Molto Nuvoloso 7 3 75 1022 10 N 5.5
Ieri h: 18:50 molto_nuvoloso Molto Nuvoloso 7 4 81 1022 10 N 5.5
Ieri h: 18:20 molto_nuvoloso Molto Nuvoloso 7 4 81 1022 10 N 5.5
Ieri h: 17:50 molto_nuvoloso Molto Nuvoloso 8 4 75 1022 10 N 5.5
Ieri h: 17:20 molto_nuvoloso Molto Nuvoloso 8 4 75 1022 10 SO 7.4
Ieri h: 16:50 molto_nuvoloso Molto Nuvoloso 8 4 75 1022 10 N 5.5
Ieri h: 16:20 molto_nuvoloso Molto Nuvoloso 8 4 75 1022 10 N 5.5
Ieri h: 15:50 molto_nuvoloso Molto Nuvoloso 9 4 70 1022 10 N 3.7
Ieri h: 15:20 molto_nuvoloso Molto Nuvoloso 9 3 66 1023 10 N 3.7
Ieri h: 14:50 molto_nuvoloso Molto Nuvoloso 10 3 61 1023 10 N 1.8
Ieri h: 14:20 molto_nuvoloso Molto Nuvoloso 10 2 57 1023 10 N 1.8
Ieri h: 13:50 nuvoloso Nuvoloso 9 2 61 1023 10 N 3.7
Ieri h: 13:20 molto_nuvoloso Molto Nuvoloso 9 2 61 1024 10 N 3.7
Ieri h: 12:50 molto_nuvoloso Molto Nuvoloso 9 2 61 1024 10 N 1.8
Ieri h: 12:20 molto_nuvoloso Molto Nuvoloso 9 3 66 1024 10 N 1.8
Ieri h: 11:50 molto_nuvoloso Molto Nuvoloso 9 2 61 1025 10 N 3.7
Ieri h: 11:20 molto_nuvoloso Molto Nuvoloso 8 3 70 1025 10 N 3.7
Ieri h: 10:50 molto_nuvoloso Molto Nuvoloso 8 3 70 1026 10 N 3.7
Ieri h: 10:20 molto_nuvoloso Molto Nuvoloso 7 3 75 1026 10 N 3.7
Ieri h: 09:50 molto_nuvoloso Molto Nuvoloso 6 3 81 1026 10 N 1.8
Ieri h: 09:20 molto_nuvoloso Molto Nuvoloso 6 2 75 1026 10 N 3.7
Ieri h: 08:50 molto_nuvoloso Molto Nuvoloso 5 2 80 1026 10 N 5.5
Ieri h: 07:50 molto_nuvoloso Molto Nuvoloso 5 2 80 1025 10 N 1.8
Ieri h: 07:20 molto_nuvoloso Molto Nuvoloso 4 2 86 1025 10 N 1.8
Ieri h: 06:50 coperto Coperto 5 2 80 1025 10 N 5.5
Ieri h: 06:20 coperto Coperto 4 2 86 1025 10 N 1.8
Ieri h: 05:50 coperto Coperto 4 2 86 1025 10 N 1.8
Ieri h: 05:20 coperto Coperto 4 1 80 1025 10 N 1.8
Ieri h: 04:50 molto_nuvoloso Molto Nuvoloso 4 1 80 1025 10 N 3.7